Regional Weather Roundup
Issued by NWS Grand Forks, ND

Home | Current Version | Previous Version | Text Only | Print | Product List | Glossary Off
Versions: 1 2 3 4 5 6 7 8 9 10 11 12 13 14 15 16 17 18 19 20 21 22 23 24 25 26 27 28 29 30 31 32 33 34 35 36 37 38 39 40 41 42 43 44 45 46 47 48 49 50

000
ASUS43 KFGF 210231
RWRFGF
PRAIRIE TO PINES  WEATHER ROUNDUP
NATIONAL WEATHER SERVICE EASTERN NORTH DAKOTA/GRAND FORKS ND
900 PM CDT SUN APR 20 2014

 **SATELLITE DATA USED TO AUGMENT SKY COVER AT AUTOMATED STATIONS**
 *****  WEATHER ACROSS EASTERN NORTH DAKOTA  *****

CITY           SKY/WX    TMP DP  RH WIND       PRES   REMARKS
GRAND FORKS    MOCLDY    63  40  42 S13       29.80F
GRAND FRKS AFB MOCLDY    63  39  42 W20       29.85R
GRAND FRKS NWS   N/A     61 N/A N/A S12         N/A
DEVILS LAKE    CLOUDY    54  36  50 W8        29.89R
FARGO          MOCLDY    66  37  34 SE10      29.87S
WAHPETON ARPT  MOCLDY    59  32  36 SE8       29.90S
$$

 ***** WEATHER ACROSS CENTRAL AND WESTERN NORTH DAKOTA  *****

CITY           SKY/WX    TMP DP  RH WIND       PRES   REMARKS
BISMARCK       MOCLDY    64  23  21 NW15      29.96R
MINOT          CLEAR     56  29  35 W14       29.91R
JAMESTOWN      MOCLDY    64  34  32 NW15      29.89R
MINOT AFB      CLEAR     54  32  43 W12       29.90R
GARRISON         N/A     54  30  40 NW9       29.95R
WILLISTON      CLEAR     56  26  31 NW13      29.98R
DICKINSON      CLEAR     51  22  31 NW10      30.00R
HETTINGER      CLEAR     50  22  33 NW10      30.03R
$$

 *****  OTHER AIRPORT OBSERVATIONS IN OUR AREA  *****

CITY           SKY/WX    TMP DP  RH WIND       PRES   REMARKS
WALHALLA         N/A     57  41  54 W10       29.83R
GRAFTON AIRPOR MOCLDY    57  37  47 W16G23    29.84R
VALLEY CITY AR CLOUDY    59  36  41 SW7       29.86R
CANDO          FAIR      54  34  47 W15       29.87R
CAVALIER APRT  FAIR      61  39  44 W18G35    29.82R
GWINNER        CLEAR     57  36  44 SE10      29.89S
SHEYENNE NWR     N/A     59  34  39 S6        29.95S
ROLLA          FAIR      54  36  50 W23G31    29.87R
 ***** THE ABOVE OBSERVATIONS ARE NON NWS ARE NOT QUALITY
       CONTROLLED AND MAY MIS-REPORT RAIN FOR SNOW...
$$

  *****  WEATHER ACROSS NORTHERN MINNESOTA  *****

CITY           SKY/WX    TMP DP  RH WIND       PRES   REMARKS
FLAG ISLAND    MOCLDY    46  32  57 CALM      29.87F
WARROAD        CLOUDY    43  37  81 E10       29.87F
ROSEAU         CLOUDY    48  39  71 E12       29.85F
HALLOCK        CLOUDY    55  45  67 SE14      29.78F
THF RVR FALLS  CLOUDY    59  36  41 SE12      29.86F
BAUDETTE       CLOUDY    48  36  63 E8        29.90F
WASKISH        MOCLDY    46  37  71 CALM      29.92S
CROOKSTON      CLOUDY    55  41  58 S10       29.85F
$$
  *****  WEATHER ACROSS CENTRAL AND WEST MINNESOTA  *****

CITY           SKY/WX    TMP DP  RH WIND       PRES   REMARKS
FOSSTON        CLOUDY    57  30  35 SE7       29.90S
BEMIDJI        MOCLDY    53  31  43 SE3       29.91F
PARK RAPIDS    PTCLDY    58  30  34 CALM      29.92S
ELBOW LAKE     FAIR      60  36  41 SE6       29.92S
WADENA         CLEAR     55  36  47 S3        29.93S
DETROIT LAKES  MOCLDY    59  32  36 SE6       29.93S
MOORHEAD       CLOUDY    61  39  44 SE8       29.89S
FERGUS FALLS   MOCLDY    63  28  27 SE7       29.88R
MORRIS MN      MOCLDY    59  39  47 E8        29.91S
STAPLES        CLEAR     55  32  41 S3        29.94S
$$
  *****  WEATHER ELSEWHERE ACROSS MINNESOTA  *****

CITY           SKY/WX    TMP DP  RH WIND       PRES   REMARKS
DULUTH         PTCLDY    54  30  40 SE5       29.98S
INTRNTL FALLS  MOCLDY    45  33  63 E6        29.93F
ELY            PTCLDY    39  30  70 SE3       29.98S
CLOQUET        CLEAR     54  30  40 E3        29.98R
WHEATON        PTCLDY    59  39  47 SE8       29.92S
BRAINERD       CLEAR     62  31  31 SE6       29.96R
HIBBING        CLEAR     43  31  62 CALM      29.95F
ALEXANDRIA     CLEAR     62  36  37 SE5       29.94S
SAINT CLOUD    CLEAR     62  36  37 CALM      29.94S
MINNEAPOLIS    PTCLDY    65  53  65 SE7       29.95R
$$

  *****  WEATHER ACROSS SOUTH DAKOTA  *****

CITY           SKY/WX    TMP DP  RH WIND       PRES   REMARKS
SIOUX FALLS    PTCLDY    63  49  60 NE3       29.86R
BROOKINGS      NOT AVBL
WATERTOWN      PTCLDY    63  37  38 E7        29.90R
HURON          CLEAR     63  44  50 E5        29.85R
SISSETON         N/A     57  36  45 SE8       29.89S
ABERDEEN       MOCLDY    65  31  28 E7        29.88R
MITCHELL       CLEAR     69  44  40 SE8       29.84S
PIERRE         MOCLDY    67  37  33 N21G29    29.88R
MOBRIDGE       PTCLDY    60  30  32 N10       29.93R
RAPID CITY     CLEAR     57  29  34 NW13      30.04R
$$

  *****  SOME WEATHER IN NEARBY STATES *****

CITY           SKY/WX    TMP DP  RH WIND       PRES   REMARKS
GLASGOW MT     CLEAR     57  24  28 W14       30.03R
GREAT FALLS MT PTCLDY    50  18  28 W6        30.14R
CHEYENNE WY    MOCLDY    60  26  27 W9        30.09R
SCOTTSBLUFF NE CLEAR     65  35  33 N17       29.99R
OMAHA NE       CLOUDY    65  58  78 S6        29.94S
DES MOINES IA  MOCLDY    71  52  50 S8        29.95R
DAVENPORT IA   MOCLDY    68  46  45 S8        29.99S
CHICAGO IL     MOCLDY    64  40  41 S9        30.04S
EAU CLAIRE WI  MOCLDY    60  54  80 S3        29.97R
LA CROSSE WI   CLOUDY    56  53  90 N5        29.97R FOG
$$

  *****  SOME NATIONAL WEATHER *****

CITY           SKY/WX    TMP DP  RH WIND       PRES   REMARKS
LA GUARDIA NY  PTCLDY    48  25  40 E5        30.38F
RALEIGH NC     CLOUDY    57  35  43 NE6       30.23S
ATLANTA GA     PTCLDY    63  41  44 E6        30.16R
NEW ORLEANS LA PTCLDY    70  63  78 S9        30.11R
OKLAHOMA CITY  MOCLDY    62  56  80 S12       30.02F
ALBUQUERQUE NM MOCLDY    73  23  15 W12       30.06R
SALT LAKE CITY MOCLDY    62  24  23 N6        30.13F
LOS ANGELES CA PTCLDY    63  56  78 W9        30.01F
BOISE ID       PTCLDY    60  19  20 N9        30.20S
SEATTLE WA     PTSUNNY   57  38  48 CALM      30.17F
$$

*** WEATHER ACROSS MANITOBA...SASKATCHEWAN AND ONTARIO ***
                ***ONTARIO***

CITY           SKY/WX    TMP DP  RH WIND       PRES   REMARKS
GERALDTON      PTCLDY    37  28  70 W2        29.97R
THUNDER BAY    PTCLDY    41  34  75 NE3       29.99R
SIOUX LOOKOUT  MOCLDY    34  27  75 E2        29.96S
TORONTO        PTCLDY    46  30  53 CALM      30.18F
BIG TROUT LK   CLOUDY    34  28  80 NW8       29.94R
PICKLE LAKE    PTCLDY    37  27  65 NW3       29.96S
DRYDEN         CLEAR     46  32  57 S3        29.95S
KENORA         MOCLDY    45  32  61 E8        29.92F
$$
                *** MANITOBA***

CITY           SKY/WX    TMP DP  RH WIND       PRES   REMARKS
BRANDON        PTCLDY    37  36  93 NE12      29.87S
DAUPHIN        CLOUDY    36  34  93 NE6       29.92R
ISLAND LAKE    CLOUDY    34  34 100 NW2       29.99S
PILOT MOUND      N/A     52  41  66 W16G24      N/A
THE PAS        CLOUDY    37  27  65 E2        29.99S
THOMPSON       MOCLDY    36  30  80 SW5       29.99R
WINNIPEG       LGT RAIN  45  34  65 NE10      29.82S
LYNN LAKE      CLEAR     36  21  55 W2        29.97R
CHURCHILL      MOCLDY    21  18  86 N7        30.07R WCI  13
GILLAM         PTCLDY    28  25  86 E3        30.03R
$$
                ***SASKATCHEWAN***

CITY           SKY/WX    TMP DP  RH WIND       PRES   REMARKS
ESTEVAN        PTCLDY    50  36  57 W16G23    29.92R
KINDERSLEY     PTCLDY    43  36  75 N8        30.04R
LLOYDMINSTER   MOCLDY    45  39  81 W6        30.02R
PRINCE ALBERT  CLOUDY    39  30  70 NW5       30.01R
REGINA         MOCLDY    43  41  93 N21G28    29.92R
YORKTON        LGT SNOW  32  32 100 NW6       29.95R
N. BATTLEFORD  MOCLDY    37  36  93 S5        30.06R
LA RONGE       MOCLDY    39  27  60 S6        29.98R
SASKATOON      CLOUDY    34  34 100 N5        30.06R
SWIFT CURRENT  CLEAR     45  36  70 NW13G18   30.00R
$$
NOTE: THESE ARE AUTOMATED STATIONS WITH LIMITED QUALITY CONTROL
      "FAIR" INDICATES FEW OR NO CLOUDS BELOW 12,000 FEET WITH NO
      SIGNIFICANT WEATHER AND/OR OBSTRUCTIONS TO VISIBILITY.
      SKY/WX - SKY CONDITION AND SIGNIFICANT WEATHER.
      TMP - AIR TEMPERATURE.    DP   - DEWPOINT TEMPERATURE.
      RH  - RELATIVE HUMIDITY.  PRES - PRESSURE.
      HX  - HEAT INDEX.         WCI  - WIND CHILL INDEX.
$



USA.gov is the U.S. government's official web portal to all federal, state and local government web resources and services.